Location: Chervonnoye
(48.6000°N, 34.4000°E)
Time: 06:31:32
(UTC+00:00)

Feng Yun 1-1 Rocket - Pass Details

Date: 23 November 2020
Orbit: 829 x 933 km, 99.2° (Epoch: 18 January)

Event Time Altitude Azimuth Distance (km) Brightness Sun altitude
Rises 15:29:05 0° 159° (SSE) 3,552 7.4 -15.3°
Reaches altitude 10° 15:31:30 10° 159° (SSE) 2,603 6.7 -15.7°
Maximum altitude 15:37:20 82° 72° (ENE) 917 4.2 -16.6°
Drops below altitude 10° 15:43:02 10° 346° (NNW) 2,555 6.7 -17.5°
Sets 15:45:24 0° 346° (NNW) 3,483 7.4 -17.9°
